Location: Pordenone
(45.9640°N, 12.6580°E)
Time: 16:32:04
(UTC+02:00)

ISS - Pass Details

Date: 19 May 2021
Orbit: 417 x 422 km, 51.6° (Epoch: 18 June)

Event Time Altitude Azimuth Distance (km) Brightness Sun altitude
Rises 22:04:46 0° 263° (W) 2,360 0.6 -12.4°
Reaches altitude 10° 22:06:56 10° 271° (W) 1,499 -0.3 -12.6°
Maximum altitude 22:10:09 41° 343° (NNW) 620 -2.4 -13.0°
Drops below altitude 10° 22:13:23 10° 56° (ENE) 1,506 -1.0 -13.4°
Sets 22:15:34 0° 64° (ENE) 2,373 -0.1 -13.6°
